Regional Weather Roundup
Issued by NWS

Home | Current Version | Previous Version | Text Only | Print | Product List | Glossary Off
Versions: 1 2 3 4 5 6 7 8 9 10 11 12 13 14 15 16 17 18 19 20 21 22 23 24 25 26 27 28 29 30 31 32 33 34 35 36 37 38 39 40 41 42 43 44 45 46 47 48 49 50

000
ASUS44 KMEG 122210
RWRTN
TENNESSEE HOURLY STATE WEATHER ROUNDUP
NATIONAL WEATHER SERVICE MEMPHIS TN
500 PM CDT SAT JUL 12 2014

TNZ002-004-019-021-049-052-054-088>092-122300-
WEST TENNESSEE

CITY           SKY/WX    TMP DP  RH WIND       PRES   REMARKS
MEMPHIS INTL   PTSUNNY   91  71  51 S8        30.09F HX  97
NWS MEMPHIS      N/A     91 N/A N/A MISG        N/A
JACKSON        MOSUNNY   90  69  50 SW8       30.11F HX  94
DYERSBURG      MOSUNNY   91  66  43 S5        30.09F HX  94
UNION CITY     MOSUNNY   90  73  58 S5        30.08F HX  98
PARIS          PTSUNNY   88  69  53 S5        30.12F HX  92
LEXINGTON      SUNNY     90  68  48 S3        30.10F HX  93
SAVANNAH       MOSUNNY   93  70  47 CALM      30.11F HX  98
$$

TNZ008-025-027-028-033-062-065-066-122300-
NORTH MIDDLE TENNESSEE

CITY           SKY/WX    TMP DP  RH WIND       PRES   REMARKS
NASHVILLE      PTSUNNY   91  63  39 W5        30.11F HX  92
DICKSON        PTSUNNY   91  64  40 CALM      30.12F HX  93
PORTLAND       CLOUDY    91  59  33 CALM      30.11F HX  90
CLARKSVILLE    PTSUNNY   90  63  40 SW9       30.10F HX  91
LEBANON        PTSUNNY   93  61  34 CALM      30.10F HX  93
SMYRNA         PTSUNNY   96  63  33 CALM      30.11F HX  97
COOKEVILLE     SUNNY     93  64  38 CALM      30.15F HX  95
GALLATIN       PTSUNNY   96  59  29 CALM      30.12F HX  95
CROSSVILLE     PTSUNNY   86  60  41 VRB3      30.20F
$$

TNZ061-075-076-078-094-096-097-122300-
SOUTH MIDDLE TENNESSEE

CITY           SKY/WX    TMP DP  RH WIND       PRES   REMARKS
LEWISBURG      PTSUNNY   93  65  39 NW3       30.11F HX  95
FAYETTEVILLE   SUNNY     88  68  51 MISG      30.13F HX  91
TULLAHOMA      SUNNY     88  61  40 CALM      30.15F
WINCHESTER     SUNNY     90  70  51 W3        30.13F HX  95
MCMINNVILLE    SUNNY     90  66  45 NE5       30.15S HX  92
COLUMBIA       SUNNY     91  70  49 VRB3      30.11F HX  97
SHELBYVILLE    SUNNY     91  66  43 CALM      30.13F HX  94
$$

TNZ017-018-042-046-047-122300-
NORTHEAST TENNESSEE

CITY           SKY/WX    TMP DP  RH WIND       PRES   REMARKS
TRI CITIES     MOSUNNY   89  60  37 VRB3      30.17F
ELIZABETHTON   CLEAR     82  66  57 N3        30.18F
$$

TNZ012-013-036-069-073-074-122300-
CENTRAL EAST TENNESSEE

CITY           SKY/WX    TMP DP  RH WIND       PRES   REMARKS
KNOXVILLE      PTSUNNY   90  66  45 SW9       30.13F HX  92
OAK RIDGE      MOSUNNY   88  67  49 SE3       30.15F HX  91
GATLINBURG     CLEAR     82  68  61 N3        30.15S
MORRISTOWN       N/A     88  70  55 SW5       30.17F HX  92
$$

TNZ083-085-099-122300-
SOUTHEAST TENNESSEE

CITY           SKY/WX    TMP DP  RH WIND       PRES   REMARKS
CHATTANOOGA    PTSUNNY   90  68  48 SE9       30.12F HX  94
$$

SKY/WX REPORTED AS FAIR MEANS FEW OR NO CLOUDS BELOW
12 THOUSAND FEET.




USA.gov is the U.S. government's official web portal to all federal, state and local government web resources and services.